Pakanbaru, Indonesia

2:32 PM WIB on January 21, 2018 (GMT +0700)
Sultan Syarif Kasim Ii

Weather History for WIBB - April, 2013

Change the Weather History Date:

Saturday, April 20, 2013

  Actual Average Record
Temperature  
Mean Temperature 84 °F -  
Max Temperature 93 °F - - ()
Min Temperature 75 °F - - ()
Cooling Degree Days 19    
Growing Degree Days 34 (Base 50)    
Moisture  
Dew Point 77 °F    
Average Humidity 79    
Maximum Humidity 100    
Minimum Humidity 52    
Precipitation  
Precipitation 0.79 in - - ()
Sea Level Pressure  
Sea Level Pressure 29.74 in    
Wind  
Wind Speed 2 mph ()    
Max Wind Speed 10 mph    
Max Gust Speed -    
Visibility 4.0 miles    
Events Rain , Thunderstorm    
T = Trace of Precipitation, MM = Missing Value Source: Averaged Metar Reports

Daily Weather History Graph

Daily Weather History Graph

Search for Another Location

Airport or City:

Trip Planner

Search our weather history database for the weather conditions in past years. The results will help you decide how hot, cold, wet, or windy it might be!

Date:

Astronomy

Apr. 20, 2013 Rise Set
Actual Time 6:09 AM WIB 6:16 PM WIB
Civil Twilight 5:48 AM WIB 6:37 PM WIB
Nautical Twilight 5:23 AM WIB 7:02 PM WIB
Astronomical Twilight 4:59 AM WIB 7:27 PM WIB
Moon 1:43 PM WIB (4/20) 1:20 AM WIB (4/20)
Length of Visible Light 12h 49m
Length of Day
12h 07m
Waxing Gibbous, 66% of the Moon is Illuminated
Apr 20
Waxing Gibbous
Apr 26
Full
May 2
Last Quarter
May 10
New
May 18
First Quarter

Hourly Weather History & Observations

Time (WIB) Temp. Heat Index Dew Point Humidity Pressure Visibility Wind Dir Wind Speed Gust Speed Precip Events Conditions
1:00 AM 76 °F - 75 °F 94% 29.78 in 3 mi North 5.8 mph - -   Haze
4:00 AM 76 °F - 75 °F 94% 29.74 in 2 mi Calm Calm - -   Haze
6:00 AM 77.0 °F - 75.2 °F 94% 29.74 in 1.9 mi Calm Calm - N/A   Haze
7:00 AM 77 °F - 76 °F 95% 29.79 in 1 mi Calm Calm - - Rain Light Rain
7:00 AM 77.0 °F - 75.2 °F 94% 29.77 in 1.9 mi Calm Calm - N/A Rain Rain
7:30 AM 77.0 °F - 75.2 °F 94% 29.80 in 1.9 mi Calm Calm - N/A Rain , Thunderstorm Thunderstorms and Rain
8:00 AM 77.0 °F - 77.0 °F 100% 29.80 in 0.9 mi North 10.4 mph - N/A Rain , Thunderstorm Thunderstorms and Rain
9:00 AM 75.2 °F - 75.2 °F 100% 29.83 in 1.9 mi ESE 6.9 mph - N/A Rain , Thunderstorm Thunderstorms and Rain
10:00 AM 78 °F - 77 °F 96% 29.81 in - Calm Calm - - Thunderstorm Light Thunderstorm
10:00 AM 77.0 °F - 77.0 °F 100% 29.80 in 3.1 mi Calm Calm - N/A   Haze
11:00 AM 80.6 °F 88.1 °F 78.8 °F 94% 29.80 in 3.7 mi WSW 5.8 mph - N/A   Scattered Clouds
12:00 PM 84.2 °F 92.3 °F 75.2 °F 74% 29.77 in 4.3 mi Calm Calm - N/A   Scattered Clouds
1:00 PM 89 °F - 78 °F 64% 29.75 in 6 mi Calm Calm - -   Partly Cloudy
1:00 PM 89.6 °F 104.7 °F 78.8 °F 70% 29.74 in 5.6 mi Calm Calm - N/A   Scattered Clouds
2:00 PM 89.6 °F 104.7 °F 78.8 °F 70% 29.68 in 6.2 mi Calm Calm - N/A   Scattered Clouds
3:00 PM 93.2 °F 107.2 °F 77.0 °F 59% 29.68 in 6.2 mi Calm Calm - N/A   Partly Cloudy
4:00 PM 94 °F - 78 °F 52% 29.67 in 6 mi Calm Calm - -   Scattered Clouds
4:00 PM 93.2 °F 110.2 °F 78.8 °F 63% 29.65 in 6.2 mi Calm Calm - N/A   Partly Cloudy
5:00 PM 93.2 °F 107.2 °F 77.0 °F 59% 29.65 in 6.2 mi Calm Calm - N/A   Partly Cloudy
6:00 PM 91.4 °F 105.1 °F 77.0 °F 63% 29.68 in 5.6 mi Calm Calm - N/A   Partly Cloudy
6:30 PM 89.6 °F 102.2 °F 77.0 °F 66% 29.68 in 5.0 mi Calm Calm - N/A   Partly Cloudy
7:00 PM 88 °F - 77 °F 64% 29.60 in 5 mi Calm Calm - - Thunderstorm Thunderstorm
7:00 PM 87.8 °F 99.7 °F 77.0 °F 70% 29.71 in 5.0 mi Calm Calm - N/A Thunderstorm Thunderstorm
8:00 PM 84.2 °F 94.1 °F 77.0 °F 79% 29.74 in 4.3 mi NW 9.2 mph - N/A Thunderstorm Thunderstorm
9:00 PM 82.4 °F 90.9 °F 77.0 °F 84% 29.77 in 4.3 mi West 5.8 mph - N/A   Scattered Clouds
10:00 PM 81 °F - 74 °F 74% 29.79 in 4 mi Calm Calm - -   Partly Cloudy